EST,Max TemperatureF,Mean TemperatureF,Min TemperatureF,Max Dew PointF,MeanDew PointF,Min DewpointF,Max Humidity, Mean Humidity, Min Humidity, Max Sea Level PressureIn, Mean Sea Level PressureIn, Min Sea Level PressureIn, Max VisibilityMiles, Mean VisibilityMiles, Min VisibilityMiles, Max Wind SpeedMPH, Mean Wind SpeedMPH, Max Gust SpeedMPH,PrecipitationIn, CloudCover, Events, WindDirDegrees
2012-11-1,81,69,56,61,57,53,93,68,42,30.06,30.02,29.96,10,10,10,20,6,24,0.00,2,,255
2012-11-2,80,71,61,63,55,44,93,61,28,30.09,30.04,30.01,10,10,10,14,6,26,0.00,2,,313
2012-11-3,81,69,57,61,56,52,86,61,36,30.14,30.08,30.05,10,10,10,12,4,15,0.00,0,,9
2012-11-4,81,71,61,64,61,59,97,74,51,30.11,30.06,30.01,10,10,10,13,4,14,0.00,3,,142
2012-11-5,80,72,64,64,61,57,93,71,48,30.01,29.97,29.93,10,10,6,10,4,13,0.00,7,,275
2012-11-6,83,74,65,66,61,55,93,67,40,29.94,29.88,29.82,10,10,10,20,6,24,0.00,6,,253
2012-11-7,72,65,57,62,53,46,93,70,47,29.98,29.90,29.83,10,10,10,24,11,30,0.00,2,,300
2012-11-8,70,61,52,51,44,36,77,55,32,30.11,30.05,29.97,10,10,10,21,12,25,0.00,2,,325
2012-11-9,76,66,56,56,51,48,86,64,41,30.20,30.16,30.10,10,10,10,17,11,24,0.00,4,,17
2012-11-10,77,74,71,57,52,49,53,48,43,30.26,30.21,30.17,10,10,10,21,11,25,T,6,,66
2012-11-11,82,78,73,62,57,49,64,52,39,30.25,30.21,30.19,10,10,10,24,16,30,0.00,4,,81
2012-11-12,82,79,75,66,64,62,69,62,54,30.21,30.16,30.13,10,10,10,24,16,30,0.00,5,,85
2012-11-13,82,78,74,65,64,62,73,64,54,30.14,30.09,30.06,10,10,10,15,10,22,0.00,5,,67
2012-11-14,82,74,66,68,64,62,93,76,58,30.12,30.08,30.05,10,10,10,17,8,22,0.11,5,Rain,59
2012-11-15,82,73,64,66,64,60,93,74,54,30.10,30.06,30.04,10,10,10,17,6,20,T,3,,2
2012-11-16,77,71,64,66,64,62,100,82,64,30.10,30.06,30.03,10,7,1,14,8,18,0.26,6,Rain,342
2012-11-17,80,73,65,66,64,62,93,76,58,30.10,30.06,30.03,10,10,10,20,9,25,0.19,6,Rain,26
2012-11-18,80,74,67,67,65,62,84,73,62,30.11,30.07,30.03,10,10,7,23,11,26,0.02,5,Rain,349
2012-11-19,72,65,58,61,58,56,93,77,61,30.12,30.07,30.03,10,10,10,18,10,21,0.00,5,,323
2012-11-20,77,68,59,63,60,57,97,81,64,30.03,29.98,29.92,10,7,0,20,12,24,T,7,,315
2012-11-21,77,68,59,60,56,52,93,70,46,30.02,29.97,29.92,10,10,10,20,12,25,0.00,2,,330
2012-11-22,75,66,57,53,50,47,78,61,43,30.11,30.04,29.99,10,10,10,24,15,30,0.00,1,,330
2012-11-23,78,67,56,56,52,49,86,65,43,30.14,30.09,30.05,10,10,10,17,10,22,0.00,1,,335
2012-11-24,75,62,49,54,50,44,93,66,38,30.11,30.05,30.00,10,10,10,16,7,20,0.00,0,,301
2012-11-25,78,65,52,60,55,50,96,71,46,30.13,30.08,30.05,10,10,10,9,4,41,0.00,2,,305
2012-11-26,80,70,60,62,60,58,97,73,48,30.19,30.15,30.11,10,10,10,16,6,21,0.00,5,,124
2012-11-27,80,75,70,64,62,60,73,62,51,30.19,30.14,30.09,10,10,10,15,9,18,0.00,5,,139
2012-11-28,80,72,63,64,63,60,93,74,54,30.19,30.14,30.10,10,10,10,18,8,23,T,6,,336
2012-11-29,80,71,61,65,61,58,97,73,48,30.22,30.18,30.15,10,10,10,22,13,26,0.17,6,Rain,49
2012-11-30,77,75,72,60,59,56,64,57,50,30.23,30.17,30.14,10,10,10,23,14,28,0.00,5,,76